Miscellaneous Local Product
Issued by NWS Hastings, NE

Home | Current Version | Previous Version | Text Only | Print | Product List | Glossary Off
Versions: 1 2 3 4 5 6 7 8 9 10 11 12 13 14 15 16 17 18 19 20 21 22 23 24 25 26 27 28 29 30 31 32 33 34 35 36 37 38 39 40 41 42 43 44 45 46 47 48 49 50

000
AXUS43 KGID 300502
MISGRI

GID CWA HOURLY WEATHER ROUNDUP
NATIONAL WEATHER SERVICE HASTINGS NE
1200 AM CDT THU JUL 30 2015

NOTE: "FAIR" INDICATES FEW OR NO CLOUDS BELOW 12,000 FEET WITH NO
SIGNIFICANT WEATHER AND/OR OBSTRUCTIONS TO VISIBILITY.

...SOUTH CENTRAL NEBRASKA...

CITY           SKY/WX    TMP DP  RH WIND       PRES   REMARKS
GRAND ISLAND   CLEAR     64  55  72 SW5       30.21F
HASTINGS       CLEAR     62  57  83 SW3       30.22S
KEARNEY        CLEAR     66  54  63 S3        30.23S
ORD            CLEAR     62  56  80 SW5       30.19S
YORK           CLEAR     61  59  94 CALM      30.20S
AURORA         CLEAR     61  60  96 SW3       30.21S
LEXINGTON      CLEAR     63  58  83 S3        30.24F
HOLDREGE       CLEAR     62  53  73 S3        30.24S
HEBRON         CLEAR     61  57  88 CALM      30.20S

...NEBRASKA PANHANDLE...

CITY           SKY/WX    TMP DP  RH WIND       PRES   REMARKS
CHADRON        CLEAR     62  51  67 CALM      30.21S
ALLIANCE       CLEAR     61  51  70 S9        30.23R
SCOTTSBLUFF    MOCLDY    69  52  54 E9        30.23R
SIDNEY         CLEAR     66  42  41 S12       30.28S

...WESTERN AND NORTH CENTRAL NEBRASKA...

CITY           SKY/WX    TMP DP  RH WIND       PRES   REMARKS
VALENTINE      CLEAR     72  46  39 CALM      30.19R
AINSWORTH      CLEAR     69  55  60 S10       30.19S
ONEILL         CLEAR     69  56  62 W5        30.18R
BROKEN BOW     CLEAR     64  54  69 S7        30.23S
IMPERIAL       CLEAR     67  49  52 S7        30.26S
NORTH PLATTE   CLEAR     59  54  83 SE3       30.24S
MCCOOK         CLEAR     64  56  75 MISG      30.25S

...EASTERN NEBRASKA...

CITY           SKY/WX    TMP DP  RH WIND       PRES   REMARKS
NORFOLK        CLEAR     67  60  78 SW9       30.16R
SO SIOUX CITY  CLEAR     67  60  78 SW8       30.13S
TEKAMAH        CLEAR     67  62  84 SW7       30.14S
COLUMBUS       CLEAR     70  57  64 SW5       30.18S
ALBION         CLEAR     65  55  69 SW3       30.19S
OMAHA EPPLEY   CLEAR     69  62  78 S6        30.16R
OFFUTT AFB     CLEAR     62  61  95 CALM      30.15S
MILLARD        CLEAR     66  63  87 CALM      30.16S
LINCOLN        CLEAR     67  59  75 CALM      30.19R
NEBRASKA CITY  CLEAR     67  59  75 SW6       30.17S
BEATRICE       CLEAR     65  63  90 CALM      30.19R
FALLS CITY     CLEAR     70  66  87 S3        30.17R

...NORTHERN KANSAS...

CITY           SKY/WX    TMP DP  RH WIND       PRES   REMARKS
GOODLAND       PTCLDY    59  53  80 S7        30.29S
HILL CITY      CLEAR     64  59  83 CALM      30.24R
NORTON         CLEAR     61  54  77 CALM      30.24R
PHILLIPSBURG   CLEAR     70  61  73 CALM      30.22S
SMITH CENTER   CLEAR     66  57  72 E7        30.22S
HAYS           CLEAR     70  55  60 E8        30.21S
RUSSELL        CLEAR     67  59  75 E7        30.20S
CONCORDIA      CLEAR     66  62  87 CALM      30.20R
SALINA         CLEAR     75  65  70 E6        30.18S
TOPEKA         CLEAR     70  68  93 CALM      30.17S



USA.gov is the U.S. government's official web portal to all federal, state and local government web resources and services.